CDT,Max TemperatureF,Mean TemperatureF,Min TemperatureF,Max Dew PointF,MeanDew PointF,Min DewpointF,Max Humidity, Mean Humidity, Min Humidity, Max Sea Level PressureIn, Mean Sea Level PressureIn, Min Sea Level PressureIn, Max VisibilityMiles, Mean VisibilityMiles, Min VisibilityMiles, Max Wind SpeedMPH, Mean Wind SpeedMPH, Max Gust SpeedMPH,PrecipitationIn, CloudCover, Events, WindDirDegrees
2012-9-1,97,86,75,72,68,61,85,61,31,30.12,30.02,29.95,10,9,6,14,10,22,0.00,2,,184
2012-9-2,98,85,73,70,65,58,82,54,29,30.10,29.98,29.90,10,10,10,14,8,23,0.00,0,,181
2012-9-3,100,87,75,69,62,52,82,49,22,30.01,29.94,29.85,10,10,9,13,8,20,0.00,0,,176
2012-9-4,100,88,75,70,64,55,84,51,22,29.96,29.90,29.81,10,10,8,14,8,20,0.00,0,,176
2012-9-5,102,86,73,69,62,53,85,48,21,29.91,29.86,29.78,10,10,9,12,7,,0.00,0,,169
2012-9-6,100,88,75,68,63,59,74,46,26,29.95,29.89,29.83,10,10,10,10,5,,0.00,0,,158
2012-9-7,102,88,75,67,60,54,69,42,21,29.91,29.85,29.76,10,10,8,9,4,,0.00,0,,171
2012-9-8,84,77,70,61,50,36,63,39,17,30.09,30.01,29.82,10,10,10,22,10,34,0.00,0,,12
2012-9-9,91,76,62,45,38,28,52,28,11,30.16,30.09,30.04,10,10,10,12,5,,0.00,0,,29
2012-9-10,93,76,61,48,40,34,48,28,13,30.13,30.05,29.99,10,10,9,10,4,,0.00,0,,82
2012-9-11,91,78,64,61,53,46,78,46,22,30.09,30.02,29.95,10,10,9,10,6,,0.00,0,,142
2012-9-12,95,83,73,69,66,58,85,64,30,30.10,30.01,29.91,10,10,8,9,7,20,0.00,3,,157
2012-9-13,91,80,68,72,69,64,94,82,41,30.19,30.09,29.99,10,7,0,17,9,30,1.12,6,Rain-Thunderstorm,111
2012-9-14,70,67,64,64,62,58,94,86,75,30.27,30.22,30.16,10,9,2,12,7,,0.01,8,Rain,351
2012-9-15,79,70,63,63,60,58,87,72,58,30.26,30.18,30.09,10,10,10,9,6,,0.00,7,Rain,352
2012-9-16,68,66,64,65,64,61,94,90,81,30.14,30.07,29.99,10,7,3,8,4,,0.13,8,Rain,55
2012-9-17,84,73,64,64,63,61,93,79,49,30.02,29.92,29.81,10,10,8,8,2,,0.00,5,,305
2012-9-18,82,73,64,64,62,57,93,71,45,30.09,30.01,29.91,10,10,9,13,5,16,0.00,0,,17
2012-9-19,84,74,63,60,53,48,76,52,28,30.15,30.08,30.03,10,10,9,9,4,,0.00,0,,62
2012-9-20,89,76,64,65,59,50,94,64,27,30.13,30.05,29.96,10,9,4,9,3,,0.00,1,,181
2012-9-21,90,75,61,59,52,39,81,49,17,30.02,29.98,29.93,10,10,10,8,1,,0.00,0,,210
2012-9-22,91,76,61,62,56,50,81,54,24,30.11,30.06,29.99,10,10,9,9,2,,0.00,0,,123
2012-9-23,91,76,63,63,58,51,84,56,26,30.19,30.13,30.09,10,10,10,9,3,,0.00,0,,143
2012-9-24,91,79,68,68,62,56,90,61,32,30.14,30.07,29.99,10,10,9,15,6,22,0.00,0,,183
2012-9-25,89,80,71,67,64,57,84,66,36,30.07,29.99,29.89,10,9,7,18,10,28,0.00,2,,186
2012-9-26,88,80,72,68,64,57,87,63,36,30.07,29.99,29.94,10,10,8,14,9,22,0.00,3,,164
2012-9-27,87,78,69,69,66,61,91,73,41,30.13,30.06,29.97,10,10,6,8,5,,0.00,3,,149
2012-9-28,84,76,71,70,68,65,91,78,54,30.10,30.01,29.92,10,10,4,9,4,,0.04,5,Rain,138
2012-9-29,71,68,66,69,67,63,97,92,90,30.01,29.86,29.76,10,5,0,20,6,29,1.02,8,Rain-Thunderstorm,112
2012-9-30,77,70,63,64,62,60,93,84,62,29.92,29.87,29.83,10,8,2,17,13,29,0.04,7,Rain,350